Flag for U.S.A. Weather past 2 weeks in Lakewood, New Jersey, U.S.A.

Now
80 °F

Sunny.


Feels Like: 82 °F
Forecast: 67 / 83 °F
Wind: N/A

Location: Lakehurst Naval Air Station

Current Time: Jul 5, 2015 at 8:04:43 PM

Latest Report: Jul 5, 2015 at 7:00 PM


Visibility: 10 mi

Pressure: 30.10 "Hg

Humidity: 62%

Dew point: 66 °F

Location of LakewoodLocation

Historic Weather in Lakewood — Graph

°F

Lakewood temperature yesterday

Maximum temperature yesterday: 78 °F (at 1:00 PM)
Minimum temperature yesterday: 65 °F (at 3:00 AM)
Average temperature yesterday: 71 °F

Past Weeks' High & Low Weather Summary

 TemperatureHumidityPressure
High93 °F (Jun 23, 2:00 PM)100% (Jun 21, 3:00 AM)30.14 "Hg (Jun 21, 3:00 AM)
Low56 °F (Jun 25, 5:00 AM)35% (Jun 25, 1:00 PM)29.62 "Hg (Jun 28, 5:00 AM)
Average73 °F73%29.91 "Hg
* Reported Jun 20 7:00 PM — Jul 5 7:00 PM, Lakewood, Weather by CustomWeather, © 2015

Note: Actual official high and low records may vary slightly from our data, if they occured in-between our weather recording intervals... More about our weather records

Advertising

Lakewood weather history for previous 24 hours

 ConditionsComfort  
Time TempWeatherWind HumidityBarometerVisibility
7:00 PM
Sun, Jul 5
80 °FSunny.N/A62%30.10 "Hg10 mi
6:00 PM82 °FPassing clouds.N/A53%30.10 "Hg10 mi
5:00 PM83 °FSunny.N/A50%30.10 "Hg10 mi
4:00 PM83 °FPassing clouds.N/A48%30.10 "Hg10 mi
3:00 PM83 °FScattered clouds.N/A50%30.11 "Hg10 mi
2:00 PM83 °FPartly sunny.N/A50%30.12 "Hg10 mi
1:00 PM81 °FSunny.N/A53%30.13 "Hg10 mi
12:00 PM80 °FScattered clouds.N/A56%30.14 "Hg10 mi
11:00 AM78 °FPassing clouds.N/A58%30.14 "Hg10 mi
10:00 AM76 °FScattered clouds.N/A62%30.13 "Hg10 mi
9:00 AM73 °FSunny.N/A66%30.13 "Hg10 mi
8:00 AM71 °FSunny.N/A68%30.11 "Hg10 mi
7:00 AM68 °FPassing clouds.N/A78%30.09 "Hg10 mi
6:00 AM67 °FOvercast.N/A79%30.07 "Hg10 mi
5:00 AM67 °FOvercast.N/A79%30.06 "Hg10 mi
4:00 AM67 °FOvercast.N/A81%30.04 "Hg10 mi
3:00 AM67 °FMostly cloudy.N/A85%30.03 "Hg10 mi
2:00 AM67 °FOvercast.N/A81%30.04 "Hg10 mi
1:00 AM68 °FOvercast.N/A73%30.04 "Hg10 mi
12:00 AM69 °FMostly cloudy.N/A73%30.02 "Hg10 mi
11:00 PM
Sat, Jul 4
69 °FOvercast.N/A73%30.00 "Hg10 mi
10:00 PM69 °FMostly cloudy.N/A79%30.00 "Hg10 mi
9:00 PM70 °FOvercast.N/A71%29.98 "Hg10 mi
8:00 PM69 °FOvercast.N/A79%29.97 "Hg10 mi
Weather by CustomWeather, © 2015

See weather overviewHow to use our weather pages